Tracking 29892 objects as of 21-Nov-2024
HD Live streaming from Space Station
objects crossing your sky now

ONEWEB-0654

Track ONEWEB-0654 now!
10-day predictions
ONEWEB-0654 is classified as:


NORAD ID: 55816
Int'l Code: 2023-029W
Perigee: 1,211.4 km
Apogee: 1,214.5 km
Inclination: 87.9 °
Period: 109.5 minutes
Semi major axis: 7583 km
RCS: Unknown
Launch date: March 9, 2023
Source: United Kingdom (UK)
Launch site: AIR FORCE EASTERN TEST RANGE (AFETR)
Your satellite tracking list
Your tracking list is empty




NASA's NSSDC Master Catalog

Two Line Element Set (TLE):
1 55816U 23029W   24325.22076156  .00000358  00000-0  93166-3 0  9990
2 55816  87.9033  43.8421 0002043 113.5748 246.5596 13.14504508 84018
Source of the keplerian elements: AFSPC